Location: Newark
(7.1028°S, 35.3258°W)
Time: 20:05:46
(UTC+00:00)

Vanguard 3 - Pass Details

Date: 04 March 2020
Orbit: 508 x 3263 km, 33.4° (Epoch: 09 April)

Event Time Altitude Azimuth Distance (km) Brightness Sun altitude
Rises 02:24:48 0° 231° (SW) 6,820 12.0 -76.4°
Reaches altitude 10° 02:30:07 10° 226° (SW) 5,472 11.4 -76.6°
Enters shadow 02:31:07 12° 225° (SW) 5,211 11.3 -76.6°
